Track IRIDIUM 171 now! 10-day predictions IRIDIUM 171 is classified as:
1 43929U 19002H 21110.41133556 .00000099 00000-0 28130-4 0 9998 2 43929 86.3988 60.9102 0002242 92.8314 267.3138 14.34217119118953